Flag for Germany Weather past 2 weeks in Bad Hersfeld, Hesse, Germany

Now
57 °F

Passing clouds.


Feels Like: 57 °F
Forecast: 54 / 75 °F
Wind: 3 mph from Northwest

Location: Fritzlar Airport

Current Time: Sep 15, 2014 at 4:28:31 AM

Latest Report: Sep 15, 2014 at 3:20 AM


Visibility: N/A

Pressure: 30.07 "Hg

Humidity: 94%

Dew point: 55 °F

Location of Bad HersfeldLocation

Historic Weather in Bad Hersfeld — Graph

°F

Bad Hersfeld temperature yesterday

Maximum temperature yesterday: 68 °F (at 2:20 PM)
Minimum temperature yesterday: 57 °F (at 11:20 PM)
Average temperature yesterday: 62 °F

Past Weeks' High & Low Weather Summary

 TemperatureHumidityPressure
High79 °F (Sep 6, 4:20 PM)100% (Aug 31, 7:20 AM)30.24 "Hg (Aug 31, 7:20 AM)
Low46 °F (Sep 1, 3:20 AM)51% (Sep 6, 5:20 PM)29.86 "Hg (Sep 6, 4:20 PM)
Average60 °F83%30.07 "Hg
* Reported Aug 31 3:20 AM — Sep 15 3:20 AM, Bad Hersfeld, Weather by CustomWeather, © 2014

Note: Actual official high and low records may vary slightly from our data, if they occured in-between our weather recording intervals... More about our weather records

Advertising

Bad Hersfeld weather history for previous 24 hours

 ConditionsComfort  
Time TempWeatherWind HumidityBarometerVisibility
3:20 AM
Sep 15
57 °FPassing clouds.3 mph94%30.07 "HgN/A
2:20 AM57 °FPartly cloudy.5 mph94%30.07 "HgN/A
1:20 AM57 °FPassing clouds.5 mph94%30.07 "HgN/A
12:20 AM57 °FPassing clouds.5 mph94%30.07 "HgN/A
11:20 PM
Sep 14
57 °FPassing clouds.5 mph88%30.09 "HgN/A
10:20 PM59 °FPassing clouds.5 mph88%30.09 "HgN/A
9:20 PM59 °FPassing clouds.6 mph88%30.09 "HgN/A
8:20 PM59 °FScattered clouds.3 mph82%30.09 "HgN/A
7:20 PM66 °FScattered clouds.5 mph64%30.07 "HgN/A
6:20 PM68 °FPartly sunny.5 mph60%30.07 "HgN/A
5:20 PM68 °FPartly sunny.6 mph60%30.09 "HgN/A
4:20 PM68 °FPartly sunny.6 mph64%30.09 "HgN/A
3:20 PM68 °FScattered clouds.7 mph56%30.09 "HgN/A
2:20 PM68 °FScattered clouds.6 mph60%30.09 "HgN/A
1:20 PM66 °FPartly sunny.6 mph68%30.12 "HgN/A
12:20 PM66 °FScattered clouds.7 mph68%30.12 "HgN/A
11:20 AM64 °FScattered clouds.7 mph73%30.15 "HgN/A
10:20 AM61 °FBroken clouds.6 mph88%30.15 "HgN/A
9:20 AM59 °FDrizzle. Partly sunny.3 mph94%30.15 "Hg5 mi
8:59 AM59 °FDrizzle. Partly sunny.5 mph94%30.15 "Hg3 mi
8:20 AM61 °FPartly sunny.3 mph83%30.15 "HgN/A
7:20 AM59 °FPassing clouds.5 mph94%30.15 "HgN/A
6:20 AM59 °FPassing clouds.6 mph94%30.15 "Hg6 mi
5:20 AM59 °FPassing clouds.5 mph94%30.15 "HgN/A
4:20 AM59 °FPassing clouds.5 mph94%30.15 "HgN/A
Weather by CustomWeather, © 2014

See weather overviewHow to use our weather pages